| time (UTC) | temp F | wind direction | speed knots | gust knots | rain 1hr in | rain 24hr in | rain mn in | humidity % | barometer mb |
| 20260507192508 | 69 | 316 | 1.7 | 10.4 | 0.00 | 0.25 | 0.01 | 31 | 1006.2 |
| 20260507192009 | 69 | 280 | 0.9 | 7.0 | 0.00 | 0.25 | 0.01 | 31 | 1006.3 |
| 20260507191529 | 69 | 4 | 0.0 | 8.7 | 0.00 | 0.25 | 0.01 | 36 | 1006.3 |
| 20260507191009 | 69 | 355 | 0.9 | 10.4 | 0.00 | 0.26 | 0.01 | 33 | 1006.4 |
| 20260507190510 | 69 | 70 | 0.0 | 10.4 | 0.00 | 0.26 | 0.01 | 32 | 1006.4 |
| 20260507190015 | 69 | 8 | 3.5 | 8.7 | 0.00 | 0.26 | 0.01 | 31 | 1006.5 |
| 20260507185506 | 69 | 288 | 0.0 | 7.8 | 0.00 | 0.27 | 0.01 | 31 | 1006.5 |
| 20260507185007 | 69 | 350 | 0.0 | 7.8 | 0.00 | 0.27 | 0.01 | 30 | 1006.4 |
| 20260507184517 | 69 | 309 | 1.7 | 7.8 | 0.00 | 0.28 | 0.01 | 32 | 1006.6 |
| 20260507184005 | 69 | 193 | 0.9 | 7.0 | 0.00 | 0.29 | 0.01 | 32 | 1006.7 |
| 20260507183508 | 69 | 284 | 0.0 | 7.8 | 0.00 | 0.30 | 0.01 | 33 | 1006.7 |
| 20260507183035 | 69 | 292 | 0.9 | 7.8 | 0.00 | 0.30 | 0.01 | 30 | 1007.0 |
| 20260507182508 | 69 | 283 | 0.0 | 6.1 | 0.00 | 0.31 | 0.01 | 31 | 1006.9 |
| 20260507182010 | 69 | 254 | 0.0 | 7.8 | 0.00 | 0.31 | 0.01 | 31 | 1007.1 |
| 20260507181526 | 70 | 358 | 0.0 | 7.8 | 0.00 | 0.32 | 0.01 | 30 | 1007.2 |
| 20260507181009 | 70 | 177 | 0.0 | 7.0 | 0.00 | 0.32 | 0.01 | 32 | 1007.3 |
| 20260507180510 | 69 | 16 | 0.9 | 9.6 | 0.00 | 0.32 | 0.01 | 32 | 1007.2 |
| 20260507180027 | 69 | 181 | 0.0 | 11.3 | 0.00 | 0.33 | 0.01 | 30 | 1007.2 |
| 20260507175509 | 69 | 284 | 0.0 | 11.3 | 0.00 | 0.33 | 0.01 | 33 | 1007.1 |
| 20260507175009 | 69 | 338 | 0.9 | 8.7 | 0.00 | 0.33 | 0.01 | 33 | 1007.1 |
| 20260507174514 | 69 | 248 | 2.6 | 8.7 | 0.00 | 0.33 | 0.01 | 34 | 1007.2 |
| 20260507174002 | 69 | 314 | 0.0 | 10.4 | 0.00 | 0.33 | 0.01 | 32 | 1007.1 |
| 20260507173502 | 68 | 136 | 0.9 | 10.4 | 0.00 | 0.33 | 0.01 | 35 | 1007.1 |
| 20260507173007 | 69 | 338 | 3.5 | 10.4 | 0.00 | 0.33 | 0.01 | 34 | 1007.1 |
| 20260507172504 | 69 | 236 | 2.6 | 9.6 | 0.00 | 0.33 | 0.01 | 34 | 1007.2 |
| 20260507172003 | 69 | 318 | 1.7 | 9.6 | 0.00 | 0.33 | 0.01 | 34 | 1007.0 |
| 20260507171504 | 68 | 207 | 0.0 | 9.6 | 0.00 | 0.33 | 0.01 | 33 | 1007.0 |
| 20260507171004 | 69 | 200 | 0.9 | 7.0 | 0.00 | 0.33 | 0.01 | 34 | 1007.1 |
| 20260507170504 | 68 | 163 | 0.0 | 7.0 | 0.00 | 0.33 | 0.01 | 36 | 1007.0 |
| 20260507170006 | 69 | 345 | 0.9 | 7.8 | 0.00 | 0.33 | 0.01 | 35 | 1007.2 |
| 20260507165503 | 69 | 311 | 0.9 | 7.8 | 0.00 | 0.33 | 0.01 | 40 | 1007.2 |
| 20260507165003 | 68 | 290 | 0.0 | 4.3 | 0.00 | 0.33 | 0.01 | 35 | 1007.3 |
| 20260507164507 | 68 | 321 | 0.0 | 3.5 | 0.00 | 0.33 | 0.01 | 38 | 1007.4 |
| 20260507164003 | 68 | 235 | 0.0 | 7.8 | 0.00 | 0.33 | 0.01 | 35 | 1007.5 |
| 20260507163506 | 67 | 294 | 0.0 | 7.8 | 0.00 | 0.33 | 0.01 | 37 | 1007.5 |
| 20260507163005 | 67 | 360 | 0.9 | 5.2 | 0.00 | 0.33 | 0.01 | 40 | 1007.5 |
| 20260507162503 | 66 | 169 | 0.0 | 8.7 | 0.00 | 0.33 | 0.01 | 36 | 1007.4 |
| 20260507162006 | 66 | 195 | 0.9 | 8.7 | 0.00 | 0.33 | 0.01 | 38 | 1007.6 |
| 20260507161504 | 66 | 359 | 0.9 | 8.7 | 0.00 | 0.33 | 0.01 | 37 | 1007.8 |
| 20260507161002 | 66 | 283 | 0.0 | 7.8 | 0.00 | 0.33 | 0.01 | 43 | 1007.9 |
| 20260507160506 | 66 | 233 | 0.0 | 13.0 | 0.00 | 0.33 | 0.01 | 39 | 1007.9 |
| 20260507160005 | 65 | 297 | 0.0 | 13.0 | 0.00 | 0.33 | 0.01 | 40 | 1008.0 |
| 20260507155503 | 65 | 202 | 0.9 | 5.2 | 0.00 | 0.33 | 0.01 | 39 | 1008.0 |
| 20260507155004 | 65 | 335 | 0.0 | 7.0 | 0.00 | 0.33 | 0.01 | 43 | 1007.9 |
| 20260507154506 | 65 | 1 | 0.0 | 8.7 | 0.00 | 0.33 | 0.01 | 43 | 1007.9 |
| 20260507154004 | 64 | 359 | 0.9 | 8.7 | 0.00 | 0.33 | 0.01 | 49 | 1007.8 |
| 20260507153504 | 63 | 69 | 0.9 | 8.7 | 0.00 | 0.33 | 0.01 | 47 | 1008.0 |
| 20260507153006 | 63 | 213 | 0.9 | 8.7 | 0.00 | 0.33 | 0.01 | 45 | 1008.1 |
| 20260507152503 | 62 | 41 | 0.9 | 8.7 | 0.00 | 0.33 | 0.01 | 50 | 1008.1 |
| 20260507152003 | 62 | 276 | 0.9 | 6.1 | 0.00 | 0.33 | 0.01 | 56 | 1008.2 |
| 20260507151506 | 62 | 236 | 0.9 | 3.5 | 0.00 | 0.33 | 0.01 | 57 | 1008.1 |
| 20260507151003 | 62 | 52 | 0.0 | 7.8 | 0.00 | 0.33 | 0.01 | 53 | 1008.1 |
| 20260507150505 | 62 | 243 | 0.9 | 7.8 | 0.00 | 0.33 | 0.01 | 51 | 1008.2 |
| 20260507150010 | 63 | 4 | 0.0 | 6.1 | 0.00 | 0.33 | 0.01 | 53 | 1008.2 |
| 20260507145501 | 63 | 139 | 0.9 | 8.7 | 0.00 | 0.33 | 0.01 | 53 | 1008.3 |
| 20260507145004 | 63 | 25 | 1.7 | 8.7 | 0.00 | 0.33 | 0.01 | 55 | 1008.2 |
| 20260507144509 | 62 | 248 | 0.9 | 7.0 | 0.00 | 0.33 | 0.01 | 55 | 1008.3 |
| 20260507144003 | 62 | 112 | 1.7 | 7.0 | 0.00 | 0.33 | 0.01 | 55 | 1008.4 |
| 20260507143503 | 62 | 231 | 0.9 | 4.3 | 0.00 | 0.33 | 0.01 | 55 | 1008.3 |
| 20260507143015 | 61 | 48 | 0.9 | 4.3 | 0.00 | 0.33 | 0.01 | 57 | 1008.3 |
| 20260507142505 | 60 | 209 | 0.9 | 6.1 | 0.00 | 0.33 | 0.01 | 59 | 1008.3 |
| 20260507142003 | 60 | 356 | 0.9 | 7.0 | 0.00 | 0.33 | 0.01 | 64 | 1008.3 |
| 20260507141508 | 59 | 269 | 1.7 | 7.0 | 0.00 | 0.33 | 0.01 | 59 | 1008.3 |
| 20260507141004 | 60 | 132 | 0.9 | 7.0 | 0.00 | 0.33 | 0.01 | 60 | 1008.2 |
| 20260507140503 | 59 | 240 | 1.7 | 6.1 | 0.00 | 0.33 | 0.01 | 62 | 1008.2 |
| 20260507140007 | 59 | 351 | 0.9 | 6.1 | 0.00 | 0.33 | 0.01 | 64 | 1008.2 |
| 20260507135504 | 58 | 229 | 0.9 | 5.2 | 0.00 | 0.33 | 0.01 | 67 | 1008.2 |
| 20260507135004 | 57 | 317 | 0.0 | 4.3 | 0.00 | 0.33 | 0.01 | 70 | 1008.2 |
| 20260507134509 | 57 | 289 | 0.0 | 2.6 | 0.00 | 0.33 | 0.01 | 66 | 1008.2 |
| 20260507134003 | 56 | 307 | 0.0 | 4.3 | 0.00 | 0.33 | 0.01 | 69 | 1008.2 |
| 20260507133503 | 56 | 155 | 0.0 | 4.3 | 0.00 | 0.33 | 0.01 | 67 | 1008.3 |
| 20260507133007 | 56 | 328 | 0.0 | 3.5 | 0.00 | 0.33 | 0.01 | 71 | 1008.3 |
| 20260507132503 | 56 | 279 | 0.9 | 3.5 | 0.00 | 0.33 | 0.01 | 71 | 1008.3 |
| 20260507132003 | 55 | 294 | 0.0 | 5.2 | 0.00 | 0.33 | 0.01 | 70 | 1008.5 |
| 20260507131513 | 55 | 283 | 0.0 | 5.2 | 0.00 | 0.33 | 0.01 | 71 | 1008.6 |
| 20260507131004 | 54 | 153 | 0.0 | 5.2 | 0.00 | 0.33 | 0.01 | 71 | 1008.7 |
| 20260507130503 | 54 | 264 | 0.0 | 5.2 | 0.00 | 0.33 | 0.01 | 71 | 1008.7 |
| 20260507130029 | 54 | 359 | 0.9 | 5.2 | 0.00 | 0.33 | 0.01 | 75 | 1008.7 |
| 20260507125503 | 54 | 278 | 0.0 | 4.3 | 0.00 | 0.33 | 0.01 | 74 | 1008.7 |
| 20260507125007 | 53 | 333 | 0.0 | 4.3 | 0.00 | 0.33 | 0.01 | 74 | 1008.7 |
| 20260507124512 | 53 | 349 | 0.0 | 5.2 | 0.00 | 0.33 | 0.01 | 72 | 1008.7 |
| 20260507124007 | 53 | 188 | 0.0 | 5.2 | 0.00 | 0.33 | 0.01 | 74 | 1008.7 |
| 20260507123504 | 53 | 339 | 0.9 | 6.1 | 0.00 | 0.33 | 0.01 | 76 | 1008.6 |
| 20260507123011 | 53 | 360 | 0.9 | 7.0 | 0.00 | 0.33 | 0.01 | 76 | 1008.7 |
| 20260507122503 | 52 | 13 | 0.9 | 8.7 | 0.00 | 0.33 | 0.01 | 78 | 1008.8 |
| 20260507122006 | 52 | 32 | 1.7 | 8.7 | 0.00 | 0.33 | 0.01 | 80 | 1008.9 |
| 20260507121509 | 52 | 342 | 1.7 | 6.1 | 0.00 | 0.33 | 0.01 | 81 | 1008.9 |
| 20260507121003 | 51 | 360 | 0.0 | 5.2 | 0.00 | 0.33 | 0.01 | 80 | 1008.9 |
| 20260507120504 | 51 | 240 | 0.0 | 4.3 | 0.00 | 0.33 | 0.01 | 82 | 1008.9 |
| 20260507120012 | 50 | 360 | 0.0 | 3.5 | 0.00 | 0.33 | 0.01 | 85 | 1008.8 |
| 20260507115504 | 50 | 1 | 0.0 | 2.6 | 0.00 | 0.33 | 0.01 | 86 | 1008.8 |
| 20260507115003 | 50 | 20 | 0.0 | 0.0 | 0.00 | 0.33 | 0.01 | 86 | 1008.8 |
| 20260507114514 | 50 | 20 | 0.0 | 0.0 | 0.00 | 0.33 | 0.01 | 85 | 1008.8 |
| 20260507114003 | 50 | 354 | 0.0 | 0.0 | 0.00 | 0.33 | 0.01 | 85 | 1008.9 |
| 20260507113506 | 50 | 354 | 0.0 | 0.0 | 0.00 | 0.33 | 0.01 | 85 | 1008.9 |
| 20260507113011 | 49 | 354 | 0.0 | 0.0 | 0.00 | 0.33 | 0.01 | 86 | 1008.8 |
| 20260507112504 | 49 | 354 | 0.0 | 0.0 | 0.00 | 0.33 | 0.01 | 86 | 1008.8 |
| 20260507112006 | 49 | 354 | 0.0 | 1.7 | 0.00 | 0.33 | 0.01 | 85 | 1008.6 |
| 20260507111515 | 49 | 1 | 0.0 | 1.7 | 0.00 | 0.33 | 0.01 | 87 | 1008.6 |
| 20260507111004 | 49 | 1 | 0.0 | 1.7 | 0.00 | 0.33 | 0.01 | 86 | 1008.7 |
| 20260507110506 | 49 | 297 | 0.0 | 0.0 | 0.00 | 0.33 | 0.01 | 86 | 1008.7 |
| 20260507110015 | 49 | 1 | 0.0 | 0.0 | 0.00 | 0.33 | 0.01 | 87 | 1008.7 |
| 20260507105504 | 49 | 1 | 0.0 | 0.0 | 0.00 | 0.33 | 0.01 | 86 | 1008.6 |
| 20260507105008 | 49 | 1 | 0.0 | 0.0 | 0.00 | 0.33 | 0.01 | 88 | 1008.5 |
| 20260507104517 | 49 | 1 | 0.0 | 0.0 | 0.00 | 0.33 | 0.01 | 88 | 1008.4 |
| 20260507104004 | 49 | 1 | 0.0 | 2.6 | 0.00 | 0.33 | 0.01 | 87 | 1008.2 |
| 20260507103503 | 49 | 1 | 0.0 | 2.6 | 0.00 | 0.33 | 0.01 | 86 | 1008.0 |
| 20260507103016 | 49 | 359 | 0.0 | 0.0 | 0.00 | 0.33 | 0.01 | 87 | 1008.0 |
| 20260507102504 | 49 | 359 | 0.0 | 0.0 | 0.00 | 0.33 | 0.01 | 88 | 1008.0 |
| 20260507102006 | 49 | 359 | 0.0 | 0.0 | 0.00 | 0.33 | 0.01 | 88 | 1008.0 |
| 20260507101516 | 49 | 359 | 0.0 | 0.0 | 0.00 | 0.33 | 0.01 | 87 | 1007.9 |
| 20260507101004 | 49 | 359 | 0.0 | 0.0 | 0.00 | 0.33 | 0.01 | 88 | 1007.9 |
| 20260507100506 | 49 | 359 | 0.0 | 0.0 | 0.00 | 0.33 | 0.01 | 88 | 1008.0 |
| 20260507100017 | 49 | 359 | 0.0 | 3.5 | 0.00 | 0.33 | 0.01 | 88 | 1007.8 |
| 20260507095507 | 49 | 359 | 0.0 | 3.5 | 0.00 | 0.33 | 0.01 | 88 | 1007.8 |
| 20260507095009 | 49 | 352 | 0.0 | 0.0 | 0.00 | 0.33 | 0.01 | 88 | 1007.8 |
| 20260507094517 | 49 | 352 | 0.0 | 0.0 | 0.00 | 0.33 | 0.01 | 89 | 1007.9 |
| 20260507094006 | 49 | 352 | 0.0 | 0.0 | 0.00 | 0.33 | 0.01 | 89 | 1008.2 |
| 20260507093504 | 49 | 352 | 0.0 | 0.0 | 0.00 | 0.33 | 0.01 | 89 | 1008.1 |
| 20260507093016 | 49 | 352 | 0.0 | 0.0 | 0.00 | 0.33 | 0.01 | 89 | 1008.2 |
| 20260507092506 | 49 | 352 | 0.0 | 0.0 | 0.00 | 0.33 | 0.01 | 89 | 1008.2 |
| 20260507092008 | 49 | 352 | 0.0 | 0.0 | 0.00 | 0.33 | 0.01 | 88 | 1008.1 |
| 20260507091522 | 49 | 352 | 0.0 | 1.7 | 0.00 | 0.33 | 0.01 | 88 | 1008.1 |
| 20260507091005 | 49 | 352 | 0.0 | 1.7 | 0.00 | 0.33 | 0.01 | 89 | 1008.0 |
| 20260507090508 | 49 | 349 | 0.0 | 0.0 | 0.00 | 0.33 | 0.01 | 89 | 1008.2 |
| 20260507090021 | 49 | 285 | 0.0 | 0.9 | 0.00 | 0.33 | 0.01 | 89 | 1008.1 |
| 20260507085505 | 49 | 285 | 0.0 | 0.9 | 0.01 | 0.33 | 0.01 | 88 | 1008.2 |
| 20260507085005 | 49 | 297 | 0.0 | 0.0 | 0.01 | 0.33 | 0.01 | 89 | 1007.9 |
| 20260507084521 | 49 | 250 | 0.0 | 2.6 | 0.01 | 0.33 | 0.01 | 89 | 1008.0 |
| 20260507084003 | 50 | 250 | 0.0 | 2.6 | 0.01 | 0.33 | 0.01 | 88 | 1008.4 |
| 20260507083507 | 50 | 285 | 0.0 | 0.0 | 0.01 | 0.33 | 0.01 | 89 | 1008.1 |
| 20260507083003 | 50 | 288 | 0.0 | 0.0 | 0.01 | 0.33 | 0.01 | 89 | 1007.8 |
| 20260507082502 | 50 | 288 | 0.0 | 0.0 | 0.01 | 0.33 | 0.01 | 88 | 1008.0 |
| 20260507082002 | 50 | 288 | 0.0 | 0.0 | 0.01 | 0.33 | 0.01 | 88 | 1007.8 |
| 20260507081503 | 50 | 288 | 0.0 | 0.0 | 0.01 | 0.33 | 0.01 | 87 | 1007.8 |
| 20260507081003 | 50 | 288 | 0.0 | 0.0 | 0.01 | 0.33 | 0.01 | 87 | 1007.9 |
| 20260507080503 | 51 | 285 | 0.0 | 0.0 | 0.01 | 0.33 | 0.01 | 87 | 1007.7 |
| 20260507080004 | 51 | 283 | 0.0 | 0.0 | 0.01 | 0.33 | 0.01 | 87 | 1007.6 |
| 20260507075503 | 51 | 270 | 0.0 | 1.7 | 0.00 | 0.32 | 0.00 | 85 | 1007.5 |
| 20260507075003 | 51 | 269 | 0.0 | 3.5 | 0.00 | 0.32 | 0.00 | 85 | 1007.7 |
| 20260507074508 | 51 | 234 | 0.0 | 3.5 | 0.00 | 0.32 | 0.00 | 85 | 1007.7 |
| 20260507074003 | 51 | 244 | 0.0 | 2.6 | 0.00 | 0.32 | 0.00 | 86 | 1007.9 |
| 20260507073503 | 51 | 323 | 0.0 | 0.9 | 0.00 | 0.32 | 0.00 | 86 | 1008.0 |
| 20260507073010 | 51 | 18 | 0.0 | 0.9 | 0.00 | 0.32 | 0.00 | 87 | 1007.9 |
| 20260507072504 | 51 | 360 | 0.0 | 0.9 | 0.00 | 0.32 | 0.00 | 88 | 1007.6 |
| 20260507072007 | 52 | 360 | 0.0 | 0.0 | 0.00 | 0.32 | 0.00 | 87 | 1007.6 |
| 20260507071503 | 52 | 360 | 0.0 | 0.0 | 0.00 | 0.32 | 0.00 | 87 | 1007.4 |
| 20260507071003 | 52 | 9 | 0.0 | 0.0 | 0.00 | 0.32 | 0.00 | 87 | 1007.4 |
| 20260507070502 | 52 | 9 | 0.0 | 5.2 | 0.00 | 0.32 | 0.00 | 87 | 1007.3 |
| 20260507070009 | 52 | 9 | 0.9 | 5.2 | 0.00 | 0.32 | 0.00 | 87 | 1007.2 |
| 20260507065502 | 52 | 269 | 0.0 | 3.5 | 0.00 | 0.32 | 0.00 | 88 | 1007.6 |
| 20260507065004 | 52 | 230 | 0.0 | 3.5 | 0.00 | 0.32 | 0.00 | 88 | 1007.5 |
| 20260507064506 | 52 | 342 | 0.0 | 0.0 | 0.00 | 0.32 | 0.00 | 89 | 1007.2 |
| 20260507064004 | 52 | 313 | 0.0 | 0.9 | 0.00 | 0.32 | 0.00 | 88 | 1007.1 |
| 20260507063503 | 52 | 313 | 0.0 | 0.9 | 0.00 | 0.32 | 0.00 | 88 | 1007.2 |
| 20260507063009 | 52 | 51 | 0.0 | 0.9 | 0.00 | 0.32 | 0.00 | 89 | 1007.2 |
| 20260507062503 | 52 | 359 | 0.0 | 0.0 | 0.00 | 0.32 | 0.00 | 89 | 1007.2 |
| 20260507062006 | 52 | 359 | 0.0 | 0.0 | 0.00 | 0.32 | 0.00 | 89 | 1007.0 |
| 20260507061514 | 52 | 359 | 0.0 | 0.0 | 0.00 | 0.32 | 0.00 | 88 | 1007.1 |
| 20260507061009 | 52 | 359 | 0.0 | 0.0 | 0.00 | 0.32 | 0.00 | 89 | 1007.1 |
| 20260507060506 | 52 | 359 | 0.0 | 0.0 | 0.00 | 0.32 | 0.00 | 88 | 1007.1 |
| 20260507060020 | 52 | 359 | 0.0 | 0.0 | 0.00 | 0.32 | 0.00 | 88 | 1007.3 |
| 20260507055503 | 53 | 359 | 0.0 | 1.7 | 0.00 | 0.32 | 0.00 | 88 | 1007.2 |
| 20260507055002 | 53 | 359 | 0.0 | 1.7 | 0.00 | 0.32 | 0.00 | 87 | 1007.4 |
| 20260507054504 | 53 | 333 | 0.0 | 0.9 | 0.00 | 0.32 | 0.00 | 88 | 1007.5 |
| 20260507054004 | 53 | 319 | 0.0 | 0.0 | 0.00 | 0.32 | 0.00 | 88 | 1007.6 |
| 20260507053504 | 53 | 319 | 0.0 | 0.0 | 0.00 | 0.32 | 0.00 | 87 | 1007.8 |
| 20260507053008 | 53 | 195 | 0.0 | 1.7 | 0.00 | 0.32 | 0.00 | 88 | 1007.7 |
| 20260507052503 | 53 | 195 | 0.0 | 3.5 | 0.00 | 0.32 | 0.00 | 87 | 1007.7 |
| 20260507052003 | 53 | 300 | 0.0 | 3.5 | 0.00 | 0.32 | 0.00 | 88 | 1007.9 |
| 20260507051512 | 53 | 268 | 0.0 | 3.5 | 0.00 | 0.32 | 0.00 | 89 | 1007.6 |
| 20260507051007 | 53 | 179 | 0.0 | 3.5 | 0.00 | 0.32 | 0.00 | 88 | 1007.7 |
| 20260507050507 | 54 | 224 | 0.0 | 0.0 | 0.00 | 0.32 | 0.00 | 89 | 1007.8 |
| 20260507050033 | 54 | 210 | 0.0 | 3.5 | 0.00 | 0.32 | 0.00 | 88 | 1007.8 |
| 20260507045509 | 54 | 183 | 0.0 | 3.5 | 0.00 | 0.32 | 0.00 | 89 | 1007.7 |
| 20260507045008 | 54 | 238 | 0.0 | 2.6 | 0.00 | 0.32 | 0.00 | 90 | 1007.6 |
| 20260507044522 | 54 | 1 | 0.0 | 2.6 | 0.00 | 0.32 | 0.00 | 90 | 1007.3 |
| 20260507044009 | 55 | 1 | 0.0 | 1.7 | 0.00 | 0.32 | 0.00 | 89 | 1007.2 |
| 20260507043504 | 55 | 340 | 0.0 | 3.5 | 0.00 | 0.32 | 0.00 | 89 | 1007.5 |
| 20260507043004 | 55 | 335 | 0.0 | 4.3 | 0.00 | 0.32 | 0.00 | 88 | 1007.6 |
| 20260507042505 | 55 | 311 | 0.0 | 4.3 | 0.00 | 0.32 | 0.00 | 89 | 1007.5 |
| 20260507042004 | 56 | 359 | 0.9 | 4.3 | 0.00 | 0.32 | 0.00 | 90 | 1007.4 |
| 20260507041520 | 56 | 333 | 0.0 | 3.5 | 0.00 | 0.32 | 0.00 | 92 | 1007.6 |
| 20260507041005 | 56 | 345 | 0.0 | 0.0 | 0.00 | 0.32 | 0.00 | 92 | 1007.6 |
| 20260507040504 | 56 | 238 | 0.0 | 0.0 | 0.00 | 0.32 | 0.00 | 92 | 1007.6 |
| 20260507040014 | 56 | 238 | 0.0 | 0.0 | 0.00 | 0.32 | 0.00 | 91 | 1007.6 |
| 20260507035504 | 56 | 238 | 0.0 | 0.0 | 0.00 | 0.32 | 0.32 | 91 | 1007.4 |
| 20260507035004 | 57 | 238 | 0.0 | 0.0 | 0.00 | 0.32 | 0.32 | 91 | 1007.4 |
| 20260507034516 | 57 | 142 | 0.0 | 0.0 | 0.00 | 0.32 | 0.32 | 90 | 1007.2 |
| 20260507034006 | 57 | 278 | 0.0 | 0.0 | 0.00 | 0.32 | 0.32 | 90 | 1007.1 |
| 20260507033507 | 57 | 210 | 0.0 | 1.7 | 0.00 | 0.32 | 0.32 | 90 | 1007.0 |
| 20260507033021 | 57 | 27 | 0.0 | 1.7 | 0.00 | 0.32 | 0.32 | 89 | 1007.0 |
| 20260507032507 | 58 | 185 | 0.0 | 0.0 | 0.00 | 0.32 | 0.32 | 89 | 1006.9 |
| 20260507032003 | 58 | 271 | 0.0 | 1.7 | 0.00 | 0.32 | 0.32 | 90 | 1006.7 |
| 20260507031509 | 58 | 268 | 0.0 | 2.6 | 0.00 | 0.32 | 0.32 | 91 | 1006.5 |
| 20260507031004 | 58 | 314 | 0.0 | 5.2 | 0.00 | 0.32 | 0.32 | 91 | 1006.5 |
| 20260507030507 | 59 | 353 | 0.0 | 7.0 | 0.00 | 0.32 | 0.32 | 92 | 1006.3 |
| 20260507030018 | 59 | 359 | 0.9 | 7.0 | 0.00 | 0.32 | 0.32 | 93 | 1006.4 |
| 20260507025505 | 60 | 335 | 0.0 | 4.3 | 0.00 | 0.32 | 0.32 | 94 | 1006.5 |
| 20260507025004 | 60 | 290 | 0.0 | 2.6 | 0.00 | 0.32 | 0.32 | 95 | 1006.4 |
| 20260507024522 | 60 | 175 | 0.0 | 0.0 | 0.00 | 0.32 | 0.32 | 95 | 1006.5 |
| 20260507024004 | 60 | 212 | 0.0 | 0.0 | 0.00 | 0.32 | 0.32 | 95 | 1006.3 |
| 20260507023505 | 60 | 179 | 0.0 | 0.0 | 0.00 | 0.32 | 0.32 | 95 | 1006.3 |
| 20260507023017 | 60 | 179 | 0.0 | 0.0 | 0.00 | 0.32 | 0.32 | 95 | 1006.3 |
| 20260507022509 | 60 | 179 | 0.0 | 0.0 | 0.00 | 0.32 | 0.32 | 94 | 1006.4 |
| 20260507022007 | 60 | 179 | 0.0 | 0.0 | 0.00 | 0.32 | 0.32 | 94 | 1006.3 |
| 20260507021522 | 60 | 202 | 0.0 | 0.0 | 0.00 | 0.32 | 0.32 | 94 | 1006.1 |
| 20260507021007 | 60 | 200 | 0.0 | 0.0 | 0.00 | 0.32 | 0.32 | 94 | 1006.0 |
| 20260507020507 | 60 | 204 | 0.0 | 0.9 | 0.00 | 0.32 | 0.32 | 94 | 1005.8 |
| 20260507020007 | 60 | 167 | 0.0 | 4.3 | 0.00 | 0.32 | 0.32 | 94 | 1005.8 |
| 20260507015508 | 60 | 178 | 0.0 | 4.3 | 0.00 | 0.32 | 0.32 | 94 | 1006.0 |
| 20260507015004 | 60 | 191 | 0.0 | 4.3 | 0.00 | 0.32 | 0.32 | 94 | 1006.0 |
| 20260507014514 | 60 | 193 | 0.0 | 3.5 | 0.00 | 0.32 | 0.32 | 94 | 1006.0 |
| 20260507014008 | 60 | 195 | 0.0 | 4.3 | 0.00 | 0.32 | 0.32 | 94 | 1006.0 |
| 20260507013504 | 60 | 179 | 0.0 | 5.2 | 0.00 | 0.32 | 0.32 | 94 | 1006.0 |
| 20260507013016 | 60 | 143 | 0.0 | 5.2 | 0.00 | 0.32 | 0.32 | 94 | 1006.0 |
| 20260507012506 | 60 | 175 | 0.9 | 5.2 | 0.00 | 0.32 | 0.32 | 94 | 1006.0 |
| 20260507012009 | 60 | 210 | 0.0 | 0.9 | 0.00 | 0.32 | 0.32 | 94 | 1006.0 |
| 20260507011524 | 60 | 169 | 0.0 | 0.0 | 0.00 | 0.32 | 0.32 | 94 | 1006.1 |
| 20260507011006 | 60 | 201 | 0.0 | 4.3 | 0.00 | 0.32 | 0.32 | 94 | 1006.1 |
| 20260507010507 | 60 | 202 | 0.9 | 5.2 | 0.00 | 0.32 | 0.32 | 94 | 1006.1 |
| 20260507010030 | 60 | 205 | 0.9 | 5.2 | 0.00 | 0.32 | 0.32 | 94 | 1006.1 |
| 20260507005508 | 60 | 149 | 0.0 | 3.5 | 0.00 | 0.32 | 0.32 | 94 | 1006.1 |
| 20260507005009 | 60 | 215 | 0.0 | 3.5 | 0.00 | 0.32 | 0.32 | 94 | 1006.2 |
| 20260507004529 | 60 | 180 | 0.0 | 3.5 | 0.00 | 0.32 | 0.32 | 94 | 1006.0 |
| 20260507004005 | 60 | 150 | 0.0 | 5.2 | 0.00 | 0.32 | 0.32 | 94 | 1006.0 |
| 20260507003506 | 60 | 183 | 0.0 | 5.2 | 0.01 | 0.32 | 0.32 | 94 | 1006.0 |
| 20260507003014 | 60 | 176 | 0.0 | 2.6 | 0.01 | 0.32 | 0.32 | 94 | 1005.9 |
| 20260507002505 | 60 | 212 | 0.0 | 2.6 | 0.01 | 0.32 | 0.32 | 94 | 1005.8 |
| 20260507002006 | 60 | 198 | 0.0 | 8.7 | 0.01 | 0.32 | 0.32 | 94 | 1005.7 |
| 20260507001518 | 60 | 205 | 0.0 | 8.7 | 0.01 | 0.32 | 0.32 | 94 | 1005.8 |
| 20260507001007 | 60 | 202 | 0.9 | 8.7 | 0.01 | 0.32 | 0.32 | 94 | 1005.9 |
| 20260507000506 | 60 | 204 | 0.0 | 7.0 | 0.01 | 0.32 | 0.32 | 94 | 1006.0 |
| 20260507000024 | 60 | 190 | 0.9 | 7.0 | 0.03 | 0.32 | 0.32 | 94 | 1005.8 |
| 20260506235506 | 60 | 188 | 0.0 | 5.2 | 0.04 | 0.32 | 0.32 | 94 | 1005.6 |
| 20260506235006 | 60 | 201 | 0.0 | 7.0 | 0.05 | 0.32 | 0.32 | 94 | 1005.6 |
| 20260506234530 | 60 | 169 | 0.9 | 7.0 | 0.05 | 0.32 | 0.32 | 95 | 1005.5 |
| 20260506234004 | 60 | 167 | 0.0 | 7.0 | 0.06 | 0.32 | 0.32 | 94 | 1005.5 |
| 20260506233507 | 60 | 145 | 0.9 | 9.6 | 0.06 | 0.31 | 0.31 | 94 | 1005.5 |
| 20260506233012 | 60 | 172 | 1.7 | 9.6 | 0.06 | 0.31 | 0.31 | 94 | 1005.5 |
| 20260506232504 | 60 | 200 | 0.9 | 5.2 | 0.06 | 0.31 | 0.31 | 94 | 1005.5 |
| 20260506232007 | 60 | 245 | 0.0 | 7.0 | 0.06 | 0.31 | 0.31 | 94 | 1005.6 |
| 20260506231516 | 60 | 193 | 0.9 | 7.0 | 0.06 | 0.31 | 0.31 | 94 | 1005.5 |
| 20260506231012 | 60 | 163 | 0.0 | 5.2 | 0.07 | 0.31 | 0.31 | 94 | 1005.5 |
| 20260506230501 | 60 | 125 | 0.0 | 5.2 | 0.07 | 0.31 | 0.31 | 94 | 1005.6 |
| 20260506230012 | 60 | 116 | 0.0 | 3.5 | 0.05 | 0.29 | 0.29 | 94 | 1005.7 |
| 20260506225503 | 60 | 159 | 0.0 | 6.1 | 0.04 | 0.28 | 0.28 | 94 | 1005.8 |
| 20260506225003 | 60 | 116 | 0.0 | 6.1 | 0.04 | 0.27 | 0.27 | 94 | 1006.0 |
| 20260506224508 | 60 | 126 | 0.9 | 6.1 | 0.04 | 0.27 | 0.27 | 94 | 1006.0 |
| 20260506224004 | 60 | 199 | 0.0 | 6.1 | 0.04 | 0.26 | 0.26 | 93 | 1006.0 |
| 20260506223504 | 60 | 186 | 0.9 | 6.1 | 0.04 | 0.25 | 0.25 | 93 | 1006.0 |
| 20260506223006 | 60 | 165 | 0.0 | 7.0 | 0.04 | 0.25 | 0.25 | 93 | 1006.0 |
| 20260506222504 | 60 | 189 | 1.7 | 7.8 | 0.04 | 0.25 | 0.25 | 93 | 1005.9 |
| 20260506222006 | 60 | 193 | 0.0 | 7.8 | 0.05 | 0.25 | 0.25 | 93 | 1005.9 |
| 20260506221514 | 60 | 172 | 0.9 | 7.8 | 0.05 | 0.25 | 0.25 | 93 | 1006.0 |
| 20260506221003 | 60 | 198 | 0.9 | 7.8 | 0.04 | 0.24 | 0.24 | 93 | 1006.1 |
| 20260506220503 | 60 | 159 | 0.9 | 7.0 | 0.04 | 0.24 | 0.24 | 93 | 1006.1 |
| 20260506220017 | 60 | 157 | 0.0 | 6.1 | 0.05 | 0.24 | 0.24 | 93 | 1006.1 |
| 20260506215505 | 60 | 199 | 0.0 | 6.1 | 0.07 | 0.24 | 0.24 | 93 | 1006.1 |
| 20260506215003 | 60 | 221 | 1.7 | 7.0 | 0.07 | 0.23 | 0.23 | 93 | 1006.1 |
| 20260506214504 | 60 | 171 | 0.9 | 7.0 | 0.08 | 0.23 | 0.23 | 92 | 1006.2 |
| 20260506214004 | 61 | 210 | 0.9 | 8.7 | 0.08 | 0.22 | 0.22 | 92 | 1006.2 |
| 20260506213503 | 61 | 124 | 3.5 | 8.7 | 0.08 | 0.21 | 0.21 | 92 | 1006.1 |
| 20260506213006 | 61 | 157 | 2.6 | 7.8 | 0.09 | 0.21 | 0.21 | 92 | 1006.1 |
| 20260506212503 | 61 | 179 | 0.0 | 6.1 | 0.10 | 0.21 | 0.21 | 93 | 1006.1 |
| 20260506212003 | 61 | 157 | 0.9 | 11.3 | 0.09 | 0.20 | 0.20 | 92 | 1006.2 |
| 20260506211508 | 61 | 193 | 0.9 | 11.3 | 0.10 | 0.20 | 0.20 | 92 | 1006.3 |
| 20260506211003 | 61 | 210 | 0.9 | 7.8 | 0.11 | 0.20 | 0.20 | 92 | 1006.4 |
| 20260506210504 | 61 | 150 | 0.9 | 9.6 | 0.11 | 0.20 | 0.20 | 92 | 1006.5 |
| 20260506210014 | 61 | 200 | 0.0 | 9.6 | 0.11 | 0.19 | 0.19 | 92 | 1006.6 |
| 20260506205504 | 61 | 158 | 1.7 | 9.6 | 0.09 | 0.17 | 0.17 | 92 | 1006.6 |
| 20260506205004 | 61 | 179 | 0.0 | 7.8 | 0.08 | 0.16 | 0.16 | 91 | 1006.8 |
| 20260506204518 | 61 | 165 | 0.9 | 7.8 | 0.07 | 0.15 | 0.15 | 91 | 1006.7 |
| 20260506204008 | 62 | 212 | 0.9 | 7.0 | 0.06 | 0.14 | 0.14 | 91 | 1006.9 |
| 20260506203508 | 62 | 159 | 1.7 | 7.8 | 0.05 | 0.13 | 0.13 | 90 | 1006.8 |
| 20260506203004 | 62 | 172 | 1.7 | 7.8 | 0.04 | 0.12 | 0.12 | 90 | 1006.7 |
| 20260506202504 | 62 | 221 | 0.0 | 6.1 | 0.03 | 0.11 | 0.11 | 90 | 1006.7 |
| 20260506202004 | 63 | 134 | 0.9 | 7.8 | 0.03 | 0.11 | 0.11 | 89 | 1006.7 |
| 20260506201525 | 63 | 204 | 0.0 | 7.8 | 0.02 | 0.10 | 0.10 | 89 | 1006.7 |
| 20260506201004 | 63 | 201 | 0.0 | 7.0 | 0.02 | 0.09 | 0.09 | 89 | 1006.9 |
| 20260506200504 | 63 | 193 | 2.6 | 8.7 | 0.02 | 0.09 | 0.09 | 88 | 1006.9 |
| 20260506200009 | 63 | 120 | 0.9 | 8.7 | 0.01 | 0.08 | 0.08 | 88 | 1006.8 |
| 20260506195504 | 63 | 199 | 0.0 | 7.0 | 0.02 | 0.08 | 0.08 | 88 | 1006.9 |
| 20260506195007 | 63 | 191 | 0.0 | 7.0 | 0.02 | 0.08 | 0.08 | 88 | 1006.9 |
| 20260506194514 | 63 | 183 | 0.9 | 7.0 | 0.03 | 0.08 | 0.08 | 88 | 1006.9 |
| 20260506194009 | 63 | 180 | 1.7 | 7.0 | 0.04 | 0.08 | 0.08 | 88 | 1006.9 |
| 20260506193508 | 63 | 213 | 1.7 | 7.0 | 0.05 | 0.08 | 0.08 | 88 | 1006.8 |
| 20260506193025 | 64 | 128 | 0.9 | 4.3 | 0.05 | 0.08 | 0.08 | 89 | 1006.8 |